Regional Weather Roundup
Issued by NWS

Home | Current Version | Previous Version | Graphics & Text | Print | Product List | Glossary On
Versions: 1 2 3 4 5 6 7 8 9 10 11 12 13 14 15 16 17 18 19 20 21 22 23 24 25 26 27 28 29 30 31 32 33 34 35 36 37 38 39 40 41 42 43 44 45 46 47 48 49 50
000
ASUS43 KMPX 301410
RWRMN
WEATHER ROUNDUP FOR MINNESOTA
NATIONAL WEATHER SERVICE TWIN CITIES/CHANHASSEN MN
900 AM CDT TUE JUN 30 2015


NOTE: "FAIR" INDICATES FEW OR NO CLOUDS BELOW 12,000 FEET WITH NO
SIGNIFICANT WEATHER AND/OR OBSTRUCTIONS TO VISIBILITY. N/A MEANS
CURRENT SKY AND/OR WEATHER CONDITIONS ARE NOT AVAILABLE.

MNZ060>063-068>070-301500-
   Twin Cities Metro

CITY           SKY/WX    TMP DP  RH WIND       PRES   REMARKS
TWIN CITIES    PTSUNNY   67  60  78 N7        29.93R
ST PAUL        MOSUNNY   67  61  81 NE5       29.93R
CRYSTAL        SUNNY     69  60  73 N7        29.92S
BLAINE         MOSUNNY   66  63  88 NE6       29.94R
LAKEVILLE      MOSUNNY   64  61  88 NE6       29.93S
EDEN PRAIRIE   MOSUNNY   67  61  81 N5        29.93R
SOUTH ST PAUL  MOSUNNY   67  61  79 NE5       29.93S
LAKE ELMO      CLOUDY    63  61  94 N8        29.95R
$$
MNZ001>005-007-008-013>017-022>024-027-028-301500-
   Northwest Minnesota

CITY           SKY/WX    TMP DP  RH WIND       PRES   REMARKS
BEMIDJI        SUNNY     60  54  80 E5        29.99R
HALLOCK        MOSUNNY   64  59  82 SE7       29.97R
ROSEAU         SUNNY     63  55  77 E6        29.99S
WARROAD        SUNNY     63  55  77 E8        29.99F
THIEF RVR FALL SUNNY     63  57  82 E7        29.99R
CROOKSTON      MOSUNNY   64  59  82 SE6       29.98R
FOSSTON        MOSUNNY   63  59  88 CALM      29.99R
DETROIT LAKES  SUNNY     64  59  82 CALM      29.99R
MOORHEAD       MOSUNNY   63  61  94 CALM      29.97F
PARK RAPIDS    SUNNY     66  57  72 E6        29.97S
MAHNOMEN       FAIR      64  59  83 CALM      29.97S
$$
MNZ006-009>011-018-025>026-301500-
   North Central Minnesota

CITY           SKY/WX    TMP DP  RH WIND       PRES   REMARKS
BAUDETTE       SUNNY     61  53  75 SE6       29.99S
FLAG ISLAND    SUNNY     61  50  67 SE7       29.99S
INTL FALLS     MOSUNNY   60  50  69 VRB5      30.01R
WASKISH        SUNNY     61  54  77 E6        29.99F
BIG FORK       PTSUNNY   59  54  82 E7        30.00S
LONGVILLE      SUNNY     61  55  82 E3        29.97S
GRAND RAPIDS   MOSUNNY   59  52  77 E5        29.99S
ORR            CLOUDY    57  48  72 CALM      29.98R
COOK           CLOUDY    57  50  77 NE3       30.01R
WALKER         FAIR      61  55  82 CALM      29.98S
$$
MNZ012-019>021-037-301500-
   Northeast Minnesota

CITY           SKY/WX    TMP DP  RH WIND       PRES   REMARKS
DULUTH         DRIZZLE   56  53  90 E6        29.98R FOG
ELY            CLOUDY    55  46  71 NE5       30.00R
HIBBING        CLOUDY    59  52  77 NE7       29.99S
EVELETH        CLOUDY    57  50  77 E5        30.00S
DULUTH HARBOR  CLOUDY    57  54  88 E18       29.99R
TWO HARBORS    MOSUNNY   63  52  67 N6        29.96R
SILVER BAY     SUNNY     61  46  59 N7        29.97R
GRAND MARAIS     N/A     53  43  68 VRB3      29.97S
G MARAIS ARPRT SUNNY     54  39  58 N10       29.98S
$$
MNZ029>031-032-039>041-046>048-054>057-064-301500-
   West Central Minnesota

CITY           SKY/WX    TMP DP  RH WIND       PRES   REMARKS
FERGUS FALLS   MOSUNNY   64  63  94 CALM      29.97S
WHEATON        MOSUNNY   61  61 100 N3        29.97F FOG
MORRIS         MOSUNNY   66  61  82 CALM      29.96S
ALEXANDRIA     SUNNY     67  57  70 NE5       29.98S
ELBOW LAKE     FAIR      65  58  79 E3        29.97S
WADENA         SUNNY     63  59  88 E3        29.96S
GLENWOOD       SUNNY     66  59  77 NE3       29.97S
APPLETON       MOSUNNY   64  61  88 CALM      29.95F
BENSON         MOSUNNY   66  57  72 CALM      29.96F
ORTONVILLE     MOSUNNY   64  61  88 CALM      29.95F
MADISON        MOSUNNY   64  63  94 CALM      29.95F FOG
WILLMAR        FAIR      68  61  77 CALM      29.98R
$$
MNZ033>034-036-042>043-049>051-058-059-301500-
   Central Minnesota

CITY           SKY/WX    TMP DP  RH WIND       PRES   REMARKS
ST CLOUD       SUNNY     67  60  78 VRB3      29.95S
SAUK CENTRE    FAIR      65  58  78 N3        29.96S
PAYNESVILLE    SUNNY     63  58  83 N3        29.96S
AITKIN         MOSUNNY   63  55  77 N3        29.95S
PINE RIVER     SUNNY     63  55  77 E3        30.01S
BRAINERD       SUNNY     64  57  78 NE7       29.96F
STAPLES        SUNNY     63  57  82 E3        29.97S
LONG PRAIRIE   FAIR      63  57  82 NE3       29.97S
LITTLE FALLS   SUNNY     64  55  72 CALM      29.96S
LITCHFIELD     SUNNY     68  63  83 E5        29.96R
BUFFALO        SUNNY     66  59  77 NE7       29.95F
MAPLE LAKE     SUNNY     67  62  82 N5        29.95S
$$
MNZ037-044-045-052-053-301500-
   East Central Minnesota

CITY           SKY/WX    TMP DP  RH WIND       PRES   REMARKS
PRINCETON      MOSUNNY   66  61  82 NE3       29.95S
MORA           MOSUNNY   63  57  82 E5        29.97S
CAMBRIDGE      MOSUNNY   66  55  68 E5        29.93S
RUSH CITY      CLOUDY    63  59  88 CALM      29.95
MOOSE LAKE     CLOUDY    61  59  94 NE7       29.96R
HINCKLEY       CLOUDY    61  61 100 NE6       29.95F
CLOQUET        CLOUDY    57  52  82 E9        29.98S
MCGREGOR       MOSUNNY   63  55  77 NE5       29.98R
$$
MNZ071>073-080-081-089-090-097-098-301500-
   Southwest Minnesota

CITY           SKY/WX    TMP DP  RH WIND       PRES   REMARKS
MONTEVIDEO     MOSUNNY   66  64  94 CALM      29.97S
GRANITE FALLS  MOSUNNY   64  62  93 NE3       29.98S
CANBY          MOSUNNY   64  62  93 N3        29.97F FOG
MARSHALL       SUNNY     64  61  88 NE7         N/A
REDWOOD FALLS  SUNNY     66  61  84 N5        29.95S HAZE
OLIVIA         SUNNY     64  59  82 NE6       29.96R
PIPESTONE      CLOUDY    66  63  88 NE3       29.96F
WINDOM         SUNNY     64  63  94 N6        29.96S FOG
WORTHINGTON    MOSUNNY   64  61  88 N7        29.96F
JACKSON        MOSUNNY   64  64 100 N7        29.96S FOG
TRACY          PTSUNNY   65  64  95 NW5       29.97S FOG
SLAYTON        MOSUNNY   65  64  97 CALM      29.98S
$$
MNZ065>067-074>077-082>085-091>093-301500-
   South Central Minnesota

CITY           SKY/WX    TMP DP  RH WIND       PRES   REMARKS
MANKATO        SUNNY     66  61  82 N7        29.94R
NEW ULM        SUNNY     64  61  88 NE6       29.95R
ST JAMES       SUNNY     66  64  94 N3        29.95F
FAIRMONT       SUNNY     66  59  77 N8        29.95R
GLENCOE        SUNNY     67  62  83 NE5       29.94R
FARIBAULT      MOSUNNY   66  63  88 N7        29.93S
OWATONNA       CLOUDY    64  63  94 NE5       29.93R FOG
WASECA         SUNNY     64  61  88 N8        29.94S
ALBERT LEA     SUNNY     66  64  94 N5        29.92S
$$
MNZ078>079-086>088-094>096-301500-
   Southeast Minnesota

CITY           SKY/WX    TMP DP  RH WIND       PRES   REMARKS
ROCHESTER      MOSUNNY   65  61  87 NE9       29.94R FOG
RED WING       CLOUDY    64  61  88 NE6       29.92R
STANTON        CLOUDY    64  63  94 N6        29.92S
DODGE CENTER   MOSUNNY   66  63  88 N8        29.93R
WINONA         CLOUDY    61  59  94 E5        29.92R
AUSTIN         SUNNY     66  63  88 N7        29.92R
PRESTON        MOSUNNY   64  60  90 N5        29.92R
$$
ABBREVIATIONS USED IN REMARKS
   TC - TEMPERATURES IN CELSIUS
  WCI - WIND CHILL INDEX
   HX - HEAT INDEX
  VSB - VISIBILITY
$$



USA.gov is the U.S. government's official web portal to all federal, state and local government web resources and services.